Location: Hains Lake
(37.8540°N, 99.8578°W)
Time: 08:52:00
(UTC+00:00)

ISS - Visible Passes

Search period start: 06 March 2021 00:00
Search period end: 16 March 2021 00:00
Orbit: 417 x 422 km, 51.6° (Epoch: 05 March)

Date Brightness Start Highest point End Pass type
(mag) Time Alt. Az. Time Alt. Az. Time Alt. Az.
06 Mar -1.4 12:31:23 10° NNW 12:33:57 20° NNE 12:36:31 10° ENE visible
07 Mar -1.0 11:44:15 10° NNW 11:46:16 15° NNE 11:48:17 10° ENE visible
08 Mar -0.8 10:58:02 11° N 10:58:32 12° NNE 10:59:46 10° NE visible
09 Mar -2.0 11:45:33 10° NNW 11:48:27 29° NNE 11:51:26 10° E visible
10 Mar -1.5 11:00:12 19° N 11:00:49 20° NNE 11:03:23 10° ENE visible
11 Mar -0.2 10:14:58 11° ENE 10:14:58 11° ENE 10:15:08 10° ENE visible
11 Mar -3.7 11:47:57 18° NW 11:50:23 81° NE 11:53:43 10° SE visible
12 Mar -2.8 11:02:54 46° NE 11:02:54 46° NE 11:06:07 10° ESE visible
13 Mar -0.4 10:18:02 11° E 10:18:02 11° E 10:18:16 10° E visible
13 Mar -2.8 11:51:03 24° W 11:52:04 29° SW 11:55:00 10° SSE visible
14 Mar -2.0 11:06:23 24° SSE 11:06:23 24° SSE 11:07:56 10° SE visible
